When you browse on this site, cookies collect data to enhance your experience and personalize the content and advertising you see.
Visit our Privacy Policy to learn more. By continuing to use the site, you agree to this use of cookies and data.
  • In United Kingdom
  • List of Countries
  • For 7 days
  • Water Temperature
  • Weather Map
  • Weather Widgets
  • user-avatar
    Login

    Hourly Weather Kranevo

    Today, 19 October, Saturday

    Time Temperature Precipitation Wind Pressure Humidity
    00:00 +15°C° 0 mm 1 mps 758 mmHg 90%
    01:00 +15°C° 0 mm 1 mps 758 mmHg 90%
    02:00 +14°C° 0 mm 0 mps 758 mmHg 90%
    03:00 +14°C° 0 mm 0 mps 758 mmHg 89%
    04:00 +14°C° 0 mm 0 mps 758 mmHg 88%
    05:00 +14°C° 0 mm 0 mps 758 mmHg 88%
    06:00 +14°C° 0 mm 0 mps 759 mmHg 85%
    07:00 +15°C° 0 mm 0 mps 759 mmHg 82%
    08:00 +18°C° 0 mm 1 mps 759 mmHg 79%
    09:00 +19°C° 0 mm 1 mps 759 mmHg 73%
    10:00 +21°C° 0 mm 1 mps 759 mmHg 67%
    11:00 +21°C° 0 mm 2 mps 759 mmHg 62%
    12:00 +23°C° 0 mm 2 mps 759 mmHg 60%
    13:00 +23°C° 0 mm 2 mps 759 mmHg 58%
    14:00 +24°C° 0 mm 2 mps 759 mmHg 56%
    15:00 +21°C° 0 mm 2 mps 759 mmHg 62%
    16:00 +20°C° 0 mm 2 mps 758 mmHg 69%
    17:00 +19°C° 0 mm 2 mps 758 mmHg 75%
    18:00 +18°C° 0 mm 2 mps 759 mmHg 79%
    19:00 +17°C° 0 mm 2 mps 759 mmHg 83%
    20:00 +17°C° 0 mm 2 mps 759 mmHg 86%
    21:00 +16°C° 0 mm 2 mps 759 mmHg 87%
    22:00 +16°C° 0 mm 2 mps 760 mmHg 88%
    23:00 +16°C° 0 mm 2 mps 760 mmHg 88%

    Tomorrow, 20 October, Sunday

    Time Temperature Precipitation Wind Pressure Humidity
    00:00 +16°C° 0 mm 2 mps 760 mmHg 88%
    01:00 +16°C° 0 mm 1 mps 760 mmHg 88%
    02:00 +15°C° 0 mm 1 mps 760 mmHg 89%
    03:00 +15°C° 0 mm 1 mps 760 mmHg 89%
    04:00 +15°C° 0 mm 1 mps 760 mmHg 88%
    05:00 +14°C° 0 mm 0 mps 760 mmHg 88%
    06:00 +16°C° 0 mm 1 mps 760 mmHg 86%
    07:00 +16°C° 0 mm 1 mps 760 mmHg 83%
    08:00 +18°C° 0 mm 1 mps 760 mmHg 81%
    09:00 +18°C° 0 mm 2 mps 761 mmHg 73%
    10:00 +20°C° 0 mm 2 mps 761 mmHg 66%
    11:00 +21°C° 0 mm 2 mps 761 mmHg 58%
    12:00 +23°C° 0 mm 2 mps 761 mmHg 56%
    13:00 +23°C° 0 mm 2 mps 760 mmHg 54%
    14:00 +23°C° 0 mm 2 mps 760 mmHg 53%
    15:00 +21°C° 0 mm 2 mps 760 mmHg 58%
    16:00 +20°C° 0 mm 2 mps 760 mmHg 63%
    17:00 +19°C° 0 mm 2 mps 760 mmHg 68%
    18:00 +18°C° 0 mm 2 mps 760 mmHg 72%
    19:00 +18°C° 0 mm 1 mps 761 mmHg 76%
    20:00 +16°C° 0 mm 1 mps 761 mmHg 80%
    21:00 +16°C° 0 mm 1 mps 761 mmHg 81%
    22:00 +16°C° 0 mm 1 mps 761 mmHg 83%
    23:00 +15°C° 0 mm 1 mps 761 mmHg 85%

    Day after tomorrow, 21 October, Monday

    Time Temperature Precipitation Wind Pressure Humidity
    00:00 +15°C° 0 mm 1 mps 761 mmHg 86%
    01:00 +15°C° 0 mm 1 mps 761 mmHg 86%
    02:00 +14°C° 0 mm 0 mps 761 mmHg 87%
    03:00 +14°C° 0 mm 0 mps 761 mmHg 87%
    04:00 +15°C° 0 mm 1 mps 761 mmHg 87%
    05:00 +14°C° 0 mm 1 mps 761 mmHg 87%
    06:00 +15°C° 0 mm 1 mps 761 mmHg 84%
    07:00 +16°C° 0 mm 1 mps 761 mmHg 81%
    08:00 +18°C° 0 mm 1 mps 761 mmHg 78%
    09:00 +19°C° 0 mm 1 mps 761 mmHg 71%
    10:00 +20°C° 0 mm 2 mps 761 mmHg 65%
    11:00 +21°C° 0 mm 2 mps 762 mmHg 58%
    12:00 +23°C° 0 mm 2 mps 761 mmHg 56%
    13:00 +23°C° 0 mm 2 mps 761 mmHg 54%
    14:00 +24°C° 0 mm 2 mps 761 mmHg 52%
    15:00 +23°C° 0 mm 2 mps 761 mmHg 58%
    16:00 +20°C° 0 mm 2 mps 761 mmHg 64%
    17:00 +19°C° 0 mm 2 mps 761 mmHg 70%
    18:00 +18°C° 0 mm 2 mps 761 mmHg 74%
    19:00 +18°C° 0 mm 1 mps 761 mmHg 78%
    20:00 +18°C° 0 mm 1 mps 761 mmHg 81%
    21:00 +16°C° 0 mm 1 mps 761 mmHg 81%
    22:00 +16°C° 0 mm 1 mps 761 mmHg 81%
    23:00 +16°C° 0 mm 1 mps 761 mmHg 80%

    22 October, Tuesday

    Time Temperature Precipitation Wind Pressure Humidity
    00:00 +16°C° 0 mm 1 mps 761 mmHg 80%
    01:00 +16°C° 0 mm 2 mps 761 mmHg 79%
    02:00 +15°C° 0 mm 2 mps 761 mmHg 79%
    03:00 +15°C° 0 mm 2 mps 761 mmHg 78%
    04:00 +15°C° 0 mm 2 mps 761 mmHg 78%
    05:00 +14°C° 0 mm 3 mps 761 mmHg 78%
    06:00 +16°C° 0 mm 3 mps 761 mmHg 75%
    07:00 +16°C° 0 mm 3 mps 761 mmHg 72%
    08:00 +17°C° 0 mm 3 mps 761 mmHg 69%
    09:00 +19°C° 0 mm 3 mps 761 mmHg 61%
    10:00 +21°C° 0 mm 3 mps 761 mmHg 53%
    11:00 +23°C° 0 mm 4 mps 761 mmHg 45%
    12:00 +23°C° 0 mm 4 mps 761 mmHg 44%
    13:00 +23°C° 0 mm 4 mps 761 mmHg 44%
    14:00 +25°C° 0 mm 5 mps 761 mmHg 44%
    15:00 +22°C° 0 mm 4 mps 761 mmHg 49%
    16:00 +21°C° 0 mm 4 mps 761 mmHg 55%
    17:00 +20°C° 0 mm 4 mps 760 mmHg 60%
    18:00 +18°C° 0 mm 4 mps 761 mmHg 66%
    19:00 +17°C° 0 mm 3 mps 761 mmHg 72%
    20:00 +16°C° 0 mm 3 mps 761 mmHg 78%
    21:00 +16°C° 0 mm 3 mps 761 mmHg 81%
    22:00 +14°C° 0 mm 3 mps 761 mmHg 84%
    23:00 +14°C° 0 mm 3 mps 761 mmHg 87%

    23 October, Wednesday

    Time Temperature Precipitation Wind Pressure Humidity
    00:00 +14°C° 0 mm 3 mps 761 mmHg 87%
    01:00 +13°C° 0 mm 3 mps 761 mmHg 88%
    02:00 +13°C° 0 mm 3 mps 761 mmHg 88%
    03:00 +13°C° 0 mm 4 mps 761 mmHg 88%
    04:00 +13°C° 0 mm 4 mps 761 mmHg 89%
    05:00 +12°C° 0 mm 4 mps 761 mmHg 89%
    06:00 +13°C° 0 mm 4 mps 761 mmHg 87%
    07:00 +13°C° 0 mm 4 mps 761 mmHg 84%
    08:00 +14°C° 0 mm 4 mps 761 mmHg 82%
    09:00 +17°C° 0 mm 4 mps 761 mmHg 74%
    10:00 +19°C° 0 mm 4 mps 761 mmHg 66%
    11:00 +21°C° 0 mm 4 mps 761 mmHg 58%
    12:00 +21°C° 0 mm 4 mps 761 mmHg 54%
    13:00 +22°C° 0 mm 4 mps 761 mmHg 51%
    14:00 +22°C° 0 mm 4 mps 761 mmHg 47%
    15:00 +21°C° 0 mm 4 mps 761 mmHg 53%
    16:00 +20°C° 0 mm 4 mps 761 mmHg 60%
    17:00 +18°C° 0 mm 4 mps 760 mmHg 66%
    18:00 +17°C° 0 mm 4 mps 761 mmHg 73%
    19:00 +15°C° 0 mm 4 mps 761 mmHg 80%
    20:00 +14°C° 0 mm 3 mps 761 mmHg 86%
    21:00 +13°C° 0 mm 3 mps 761 mmHg 88%
    22:00 +13°C° 0 mm 3 mps 761 mmHg 89%
    23:00 +13°C° 0 mm 3 mps 761 mmHg 90%

    24 October, Thursday

    Time Temperature Precipitation Wind Pressure Humidity
    00:00 +13°C° 0 mm 3 mps 761 mmHg 90%
    01:00 +12°C° 0 mm 3 mps 761 mmHg 90%
    02:00 +12°C° 0 mm 3 mps 761 mmHg 89%
    03:00 +12°C° 0 mm 3 mps 761 mmHg 88%
    04:00 +12°C° 0 mm 3 mps 761 mmHg 88%
    05:00 +12°C° 0 mm 3 mps 761 mmHg 87%
    06:00 +12°C° 0 mm 3 mps 761 mmHg 84%
    07:00 +13°C° 0 mm 3 mps 761 mmHg 82%
    08:00 +13°C° 0 mm 3 mps 761 mmHg 80%
    09:00 +16°C° 0 mm 3 mps 761 mmHg 71%
    10:00 +19°C° 0 mm 3 mps 761 mmHg 61%
    11:00 +21°C° 0 mm 3 mps 760 mmHg 52%
    12:00 +21°C° 0 mm 3 mps 760 mmHg 51%
    13:00 +22°C° 0 mm 3 mps 760 mmHg 50%
    14:00 +22°C° 0 mm 4 mps 760 mmHg 49%
    15:00 +21°C° 0 mm 3 mps 760 mmHg 56%
    16:00 +19°C° 0 mm 3 mps 760 mmHg 64%
    17:00 +18°C° 0 mm 3 mps 759 mmHg 72%
    18:00 +17°C° 0 mm 3 mps 760 mmHg 77%
    19:00 +16°C° 0 mm 2 mps 760 mmHg 82%
    20:00 +15°C° 0 mm 2 mps 760 mmHg 87%
    21:00 +15°C° 0 mm 2 mps 760 mmHg 87%
    22:00 +15°C° 0 mm 2 mps 760 mmHg 87%
    23:00 +14°C° 0 mm 1 mps 760 mmHg 87%
    Show more